GFSNE_prec_snow_273.txt.gz
Snowfall_Accumulation
0.9 0.9 0.9 0.7 0.5 0.2 0.3 1.2 4.1 3.4 1.5 0.1 0.3 0.1 0.0 0.0 0.0 0.0 0.3 0.0 0.2 0.2 0.4 0.0 0.0 0.0 0.0 0.0 0.0 0.0 0.0 0.0 0.0 0.0 0.0 0.0 0.0 0.0
0.9 0.8 0.7 0.9 0.7 1.3 0.9 0.4 1.4 3.5 2.4 0.4 0.5 0.5 0.2 0.0 0.2 0.4 0.6 2.6 2.6 1.6 1.1 1.3 0.1 0.0 0.1 0.0 0.0 0.0 0.0 0.0 0.0 0.0 0.0 0.0 0.0 0.0
0.7 1.2 1.1 0.9 1.1 1.3 1.7 1.3 0.9 1.7 2.3 2.8 1.2 0.8 0.7 0.8 0.7 0.1 0.4 1.0 4.2 4.0 1.6 0.5 0.4 0.1 0.0 0.1 0.1 0.1 0.5 0.0 1.1 0.0 0.0 0.0 0.0 0.0
1.3 1.1 1.2 1.1 1.3 1.9 2.0 2.0 1.6 2.0 2.0 3.8 2.4 1.9 1.6 2.9 3.5 1.6 0.9 0.5 0.9 3.2 3.1 2.8 0.8 0.8 0.2 0.8 0.8 0.1 0.2 4.9 3.8 4.1 0.1 0.1 1.0 0.0
1.8 1.8 2.1 1.3 0.9 1.9 3.0 3.4 2.3 1.4 2.3 2.9 3.6 3.0 3.8 3.5 3.7 3.1 0.6 0.5 0.0 1.4 2.2 3.1 3.8 2.8 2.0 1.2 0.8 0.0 0.3 0.2 0.6 2.6 7.0 5.1 2.6 4.8
2.2 2.0 2.6 2.3 2.5 1.9 2.1 3.4 3.4 3.1 2.9 3.1 3.2 4.9 4.4 8.6 2.8 4.7 7.8 2.9 1.7 0.3 0.3 0.6 0.6 0.5 1.3 2.4 3.8 1.4 1.1 1.0 0.6 0.0 2.1 6.0 7.1 4.1
1.8 1.2 1.5 2.5 2.6 3.0 2.7 2.7 2.5 2.9 3.0 6.0 6.8 9.1 9.2 10.5 10.7 8.3 5.9 6.0 5.0 3.2 2.0 0.4 0.4 0.4 0.4 0.2 1.5 3.1 3.9 2.7 3.4 1.2 0.9 2.4 3.4 1.2
1.4 1.3 1.2 0.9 1.2 1.5 2.0 1.8 1.4 2.7 3.9 5.1 5.5 6.8 8.9 7.6 7.3 6.0 7.8 8.8 9.7 7.7 5.8 5.1 0.8 1.8 0.6 0.2 1.0 0.9 1.7 2.3 4.5 5.0 3.7 4.0 3.2 3.4
0.6 0.8 1.0 0.5 0.1 0.2 0.0 0.0 0.1 0.3 1.0 1.8 3.5 4.4 5.3 6.0 5.5 5.6 4.7 3.6 3.4 3.5 3.8 8.2 5.5 4.5 3.2 0.7 0.8 0.8 0.6 0.9 1.2 2.1 2.8 2.7 3.3 3.7
7.7 6.4 3.1 1.3 1.8 0.5 0.7 0.5 0.2 0.2 0.2 0.5 0.5 0.5 3.5 2.1 0.3 0.3 5.8 5.9 9.0 8.2 5.3 12.1 11.6 13.6 5.7 4.0 3.9 1.8 1.0 3.6 3.0 3.3 4.5 4.1 4.2 4.3
8.9 9.0 8.4 11.5 10.7 8.0 3.1 1.3 1.3 1.2 1.6 5.0 0.7 3.2 4.0 4.5 4.8 9.9 14.2 14.3 12.4 13.7 10.5 9.0 10.3 16.3 19.2 20.7 13.2 9.4 6.3 4.4 4.9 3.1 2.4 1.9 1.4 1.4
11.1 12.8 9.9 8.1 9.5 7.4 2.5 7.0 6.3 5.8 9.0 8.9 10.7 10.1 10.1 9.9 5.8 6.8 5.1 10.7 12.1 16.9 15.7 14.8 14.9 15.0 19.3 18.6 18.3 14.5 8.5 4.1 3.1 4.3 1.6 1.6 2.2 2.6
8.2 7.7 6.2 6.6 3.7 4.3 4.6 5.0 9.0 8.5 6.7 7.6 8.5 10.4 10.4 13.5 15.6 15.8 12.1 15.0 16.6 18.3 16.3 16.8 15.2 11.3 12.7 13.6 14.6 18.1 12.3 14.6 15.2 8.1 6.2 3.8 1.1 0.5
7.5 7.8 7.5 5.3 5.6 6.3 6.9 7.6 7.9 10.1 15.6 17.7 21.4 20.4 20.3 18.5 17.2 16.4 15.8 15.3 14.7 12.0 12.2 10.5 16.7 12.8 12.0 11.6 16.0 13.1 13.7 13.6 15.5 17.4 21.2 18.4 18.0 16.3
6.4 6.7 6.4 5.1 6.7 7.8 11.0 14.2 13.0 14.7 19.9 21.0 20.2 20.7 19.9 15.6 12.7 15.0 12.5 7.9 6.9 7.2 5.9 5.1 9.2 8.9 8.8 8.4 8.1 8.2 12.0 16.9 20.1 20.2 22.7 23.7 23.9 24.5
7.9 9.7 12.1 17.9 16.2 18.2 18.6 18.1 17.9 17.3 15.6 15.4 15.5 15.3 15.3 13.7 12.7 9.5 9.4 7.8 6.4 6.7 7.5 7.4 6.4 9.1 12.8 11.4 10.9 10.9 11.6 13.9 20.3 21.4 22.3 28.9 31.1 33.1
14.1 13.4 13.3 12.2 11.2 11.6 11.1 11.3 10.9 12.1 14.1 14.0 11.8 12.0 11.1 9.0 7.5 6.4 6.5 6.5 6.9 7.8 11.1 9.5 9.1 9.8 10.7 11.4 14.7 13.6 13.2 12.7 14.8 17.3 16.7 25.2 33.7 36.9
9.2 7.9 10.1 10.7 10.1 10.0 12.4 10.3 10.5 12.0 10.2 7.6 8.7 7.1 7.2 7.8 7.7 7.8 6.5 6.4 6.5 6.6 7.5 8.9 10.4 11.0 12.0 14.9 12.8 14.4 14.7 13.7 15.9 15.9 16.0 15.7 20.5 25.2
9.0 9.4 8.5 8.6 11.7 9.0 11.7 9.9 9.5 8.2 4.7 7.1 6.3 6.9 7.1 7.0 7.0 6.3 6.5 6.5 6.8 6.3 7.1 6.9 8.0 8.9 11.0 10.8 16.4 11.9 12.9 14.6 13.5 13.6 13.4 13.0 15.7 20.9
5.6 5.8 8.3 7.0 6.2 6.2 6.1 6.0 5.3 7.5 7.4 8.1 7.7 8.1 7.9 7.5 7.1 6.6 5.9 5.7 5.2 6.1 6.2 6.8 6.3 6.4 6.6 10.4 12.5 16.3 10.5 11.7 10.7 11.1 11.9 12.3 14.0 13.0
4.5 4.0 4.6 4.5 4.0 4.2 4.6 6.0 6.1 6.9 6.3 7.2 7.2 7.4 7.4 6.9 7.0 6.0 6.7 6.3 5.4 5.4 6.0 6.5 6.2 4.1 5.9 5.8 8.9 13.2 16.1 11.6 8.5 6.6 9.9 8.6 9.0 8.2
3.8 4.2 4.4 3.7 4.6 5.1 4.8 5.9 5.8 6.5 6.1 6.3 7.3 7.0 6.8 6.6 7.1 7.1 6.8 6.7 5.5 4.5 4.6 5.6 6.3 5.9 6.3 5.0 8.0 9.6 12.0 14.0 11.5 8.4 6.3 3.3 9.2 11.7
7.2 6.9 6.1 5.4 5.7 4.8 5.5 6.4 6.1 6.3 5.8 6.6 6.8 7.5 7.3 7.3 7.1 6.5 6.1 5.5 4.0 5.1 4.7 5.6 5.9 4.6 5.7 5.9 6.4 9.4 8.6 9.4 8.8 7.5 10.5 5.0 3.4 2.8

GFSNE_prec_snow_279.txt.gz
Snowfall_Accumulation
0.9 0.9 0.9 0.7 0.5 0.2 0.3 1.2 4.1 3.4 1.5 0.1 0.3 0.1 0.0 0.0 0.0 0.0 0.3 0.0 0.2 0.2 0.4 0.0 0.0 0.0 0.0 0.0 0.0 0.0 0.0 0.0 0.0 0.0 0.0 0.0 0.0 0.0
0.9 0.8 0.7 0.9 0.7 1.3 0.9 0.4 1.4 3.5 2.4 0.4 0.5 0.5 0.2 0.0 0.2 0.4 0.6 2.6 2.6 1.6 1.1 1.3 0.1 0.0 0.1 0.0 0.0 0.0 0.0 0.0 0.0 0.0 0.0 0.0 0.0 0.0
0.7 1.2 1.1 0.9 1.1 1.3 1.7 1.3 0.9 1.7 2.3 2.8 1.2 0.8 0.7 0.8 0.7 0.1 0.4 1.0 4.2 4.0 1.6 0.5 0.4 0.1 0.0 0.1 0.1 0.1 0.5 0.0 1.1 0.0 0.0 0.0 0.0 0.0
1.3 1.1 1.2 1.1 1.3 1.9 2.0 2.0 1.6 2.0 2.0 3.8 2.4 1.9 1.6 2.9 3.5 1.6 0.9 0.5 0.9 3.2 3.1 2.8 0.8 0.8 0.2 0.8 0.8 0.1 0.2 4.9 3.8 4.1 0.1 0.1 1.0 0.0
1.8 1.8 2.1 1.3 0.9 1.9 3.0 3.4 2.3 1.4 2.3 2.9 3.6 3.0 3.8 3.5 3.7 3.1 0.6 0.5 0.0 1.4 2.2 3.1 3.8 2.8 2.0 1.2 0.8 0.0 0.3 0.2 0.6 2.6 7.0 5.1 2.6 4.8
2.2 2.0 2.6 2.3 2.5 1.9 2.1 3.4 3.4 3.1 2.9 3.1 3.2 4.9 4.4 8.6 2.8 4.7 7.8 2.9 1.7 0.3 0.3 0.6 0.6 0.5 1.3 2.4 3.8 1.4 1.1 1.0 0.6 0.0 2.1 6.0 7.1 4.1
1.8 1.2 1.5 2.5 2.6 3.0 2.7 2.7 2.5 2.9 3.0 6.0 6.8 9.1 9.2 10.5 10.7 8.3 5.9 6.0 5.0 3.2 2.0 0.4 0.4 0.4 0.4 0.2 1.5 3.1 3.9 2.7 3.4 1.2 0.9 2.4 3.4 1.2
1.4 1.3 1.2 0.9 1.2 1.5 2.0 1.8 1.4 2.7 3.9 5.1 5.5 6.8 8.9 7.6 7.3 6.0 7.8 8.8 9.7 7.7 5.8 5.1 0.8 1.8 0.6 0.2 1.0 0.9 1.7 2.3 4.5 5.0 3.7 4.0 3.2 3.4
0.6 0.8 1.0 0.5 0.1 0.2 0.0 0.0 0.1 0.3 1.0 1.8 3.5 4.4 5.3 6.0 5.5 5.6 4.7 3.6 3.4 3.5 3.8 8.2 5.5 4.5 3.2 0.7 0.8 0.8 0.6 0.9 1.2 2.1 2.8 2.7 3.3 3.7
7.7 6.4 3.1 1.3 1.8 0.5 0.7 0.5 0.2 0.2 0.2 0.5 0.5 0.5 3.5 2.1 0.3 0.3 5.8 5.9 9.0 8.2 5.3 12.1 11.6 13.6 5.7 4.0 3.9 1.8 1.0 3.6 3.0 3.3 4.5 4.1 4.2 4.3
8.9 9.0 8.4 11.5 10.7 8.0 3.1 1.3 1.3 1.2 1.6 5.0 0.7 3.2 4.0 4.5 4.8 9.9 14.2 14.3 12.4 13.7 10.5 9.0 10.3 16.3 19.2 20.7 13.2 9.4 6.3 4.4 4.9 3.1 2.4 1.9 1.4 1.4
11.1 12.8 9.9 8.1 9.5 7.4 2.5 7.0 6.3 5.8 9.0 8.9 10.7 10.1 10.1 9.9 5.8 6.8 5.1 10.7 12.1 16.9 15.7 14.8 14.9 15.0 19.3 18.6 19.7 16.2 10.7 6.7 5.8 6.7 3.8 3.5 3.7 3.8
8.2 7.7 6.2 6.7 3.7 4.3 4.6 5.0 9.0 8.5 6.8 7.6 8.5 10.4 10.4 13.5 15.6 15.8 12.1 15.0 16.6 18.3 16.3 16.8 15.2 11.3 12.7 13.6 15.6 19.3 13.7 16.1 16.6 9.2 6.2 4.8 2.4 1.7
7.5 7.8 7.5 5.3 5.6 6.3 6.9 7.6 7.9 10.1 15.7 17.7 21.4 20.4 20.3 18.5 17.2 16.4 15.8 15.3 14.7 12.0 12.2 10.5 16.7 12.8 12.0 11.6 16.0 13.5 14.3 14.9 16.8 18.5 22.2 19.5 18.9 17.0
6.5 6.7 6.4 5.2 6.7 7.8 11.0 14.2 13.0 14.7 20.0 21.2 20.3 20.7 20.0 15.6 12.7 15.0 12.5 7.9 6.9 7.2 5.9 5.1 9.2 8.9 8.8 8.4 8.1 8.4 12.3 17.4 20.7 20.7 23.3 24.4 24.1 25.1
7.9 9.7 12.1 17.9 16.2 18.2 18.6 18.2 17.9 17.3 15.7 15.7 15.7 15.4 15.4 13.7 12.8 9.5 9.4 7.8 6.6 6.7 7.5 7.4 6.4 9.1 12.8 11.5 11.0 11.1 11.8 14.0 20.8 21.9 22.9 29.6 31.9 33.8
14.2 13.4 13.4 12.3 11.2 11.7 11.1 11.4 10.9 12.2 14.2 14.2 12.1 12.2 11.2 9.0 7.5 6.5 6.7 6.8 7.3 8.1 11.5 9.8 9.2 9.9 10.8 11.4 14.8 13.9 13.5 13.1 15.4 17.9 17.2 25.9 34.5 37.8
9.3 8.0 10.2 10.8 10.2 10.1 12.5 10.4 10.6 12.1 10.3 7.8 8.9 7.3 7.4 8.0 7.7 7.9 6.8 6.9 6.9 7.1 8.0 9.5 10.9 11.2 12.1 15.2 13.1 14.8 15.2 14.2 16.6 16.6 16.7 16.0 21.2 26.2
9.1 9.5 8.6 8.8 11.8 9.1 11.8 10.1 9.7 8.3 4.8 7.4 6.6 7.1 7.3 7.2 7.3 6.5 6.9 7.1 7.5 7.0 8.0 7.8 8.7 9.3 11.2 10.8 17.2 12.5 13.2 15.1 14.1 14.3 14.2 13.6 16.1 21.8
5.7 6.0 8.5 7.2 6.4 6.4 6.2 6.2 5.5 7.7 7.7 8.4 8.0 8.2 8.1 7.9 7.5 6.9 6.3 6.3 6.0 7.1 7.4 7.9 7.2 7.0 6.8 10.6 12.7 17.3 10.9 11.9 10.8 11.4 12.5 12.9 14.5 13.7
4.6 4.2 4.7 4.8 4.3 4.5 4.8 6.2 6.4 7.3 6.6 7.6 7.5 7.6 7.6 7.4 7.5 6.5 7.3 7.3 6.7 6.8 7.3 7.8 7.5 5.0 6.5 5.9 9.2 13.9 17.4 12.6 9.0 6.7 10.3 8.9 9.2 8.6
3.9 4.4 4.4 4.0 4.9 5.4 5.1 6.3 6.3 6.9 6.6 6.7 7.7 7.3 7.1 7.2 7.7 7.8 7.6 7.7 6.6 5.7 5.8 6.9 7.5 6.3 6.4 5.0 8.1 9.8 12.7 15.3 12.6 9.1 6.6 3.3 9.3 11.9
7.8 7.3 6.3 5.8 6.2 5.3 6.0 6.9 6.6 6.7 6.3 6.9 7.2 7.9 7.8 7.8 7.7 7.2 6.9 6.3 5.1 6.2 5.4 6.2 6.5 5.0 6.2 6.3 6.6 9.8 9.0 9.9 9.3 7.8 11.2 5.3 3.4 2.8

GFSNE_prec_snow_285.txt.gz
Snowfall_Accumulation
0.9 0.9 0.9 0.7 0.5 0.2 0.3 1.2 4.1 3.4 1.5 0.1 0.3 0.1 0.0 0.0 0.0 0.0 0.3 0.0 0.2 0.2 0.4 0.0 0.0 0.0 0.0 0.0 0.0 0.0 0.0 0.0 0.0 0.0 0.0 0.0 0.0 0.0
0.9 0.8 0.7 0.9 0.7 1.3 0.9 0.4 1.4 3.5 2.4 0.4 0.5 0.5 0.2 0.0 0.2 0.4 0.6 2.6 2.6 1.6 1.1 1.3 0.1 0.0 0.1 0.0 0.0 0.0 0.0 0.0 0.0 0.0 0.0 0.0 0.0 0.0
0.7 1.2 1.1 0.9 1.1 1.3 1.7 1.3 0.9 1.7 2.3 2.8 1.2 0.8 0.7 0.8 0.7 0.1 0.4 1.0 4.2 4.0 1.6 0.5 0.4 0.1 0.0 0.1 0.1 0.1 0.5 0.0 1.1 0.0 0.0 0.0 0.0 0.0
1.3 1.1 1.2 1.1 1.3 1.9 2.0 2.0 1.6 2.0 2.0 3.8 2.4 1.9 1.6 2.9 3.5 1.6 0.9 0.5 0.9 3.2 3.1 2.8 0.8 0.8 0.2 0.8 0.8 0.1 0.2 4.9 3.8 4.1 0.1 0.1 1.0 0.0
1.8 1.8 2.1 1.3 0.9 1.9 3.0 3.4 2.3 1.4 2.3 2.9 3.6 3.0 3.8 3.5 3.7 3.1 0.6 0.5 0.0 1.4 2.2 3.1 3.8 2.8 2.0 1.2 0.8 0.0 0.3 0.2 0.6 2.6 7.0 5.1 2.6 4.8
2.2 2.0 2.6 2.3 2.5 1.9 2.1 3.4 3.4 3.1 2.9 3.1 3.2 4.9 4.4 8.6 2.8 4.7 7.8 2.9 1.7 0.3 0.3 0.6 0.6 0.5 1.3 2.4 3.8 1.4 1.1 1.0 0.6 0.0 2.1 6.0 7.1 4.1
1.8 1.2 1.5 2.5 2.6 3.0 2.7 2.7 2.5 2.9 3.0 6.0 6.8 9.1 9.2 10.5 10.7 8.3 5.9 6.0 5.0 3.2 2.0 0.4 0.4 0.4 0.4 0.2 1.5 3.1 3.9 2.7 3.4 1.2 0.9 2.4 3.4 1.2
1.4 1.3 1.2 0.9 1.2 1.5 2.0 1.8 1.4 2.7 3.9 5.2 5.5 6.8 8.9 7.6 7.3 6.0 7.8 8.8 9.7 7.7 5.8 5.1 0.8 1.8 0.6 0.2 1.0 0.9 1.7 2.3 4.5 5.0 3.7 4.0 3.2 3.4
0.6 0.8 1.0 0.5 0.1 0.2 0.0 0.0 0.1 0.3 1.0 1.8 3.7 4.5 5.4 6.0 5.6 5.6 4.7 3.6 3.4 3.5 3.9 8.2 5.5 4.5 3.2 0.7 0.8 0.8 0.6 0.9 1.2 2.1 2.8 2.7 3.3 3.7
7.7 6.4 3.1 1.3 1.8 0.5 0.7 0.5 0.2 0.2 0.2 0.5 0.5 0.5 3.5 2.1 0.3 0.3 5.9 6.0 9.0 8.2 5.3 12.2 11.6 13.6 5.7 4.0 3.9 1.8 1.0 3.6 3.0 3.3 4.5 4.1 4.2 4.3
8.9 9.0 8.4 11.5 10.7 8.0 3.1 1.4 1.3 1.3 1.6 5.0 0.7 3.2 4.0 4.5 4.8 9.9 14.3 14.4 12.5 13.7 10.5 9.2 10.3 16.3 19.2 20.8 13.3 9.9 6.9 5.0 4.9 3.8 3.2 5.4 5.1 5.3
11.1 12.8 9.9 8.1 9.5 7.4 2.6 7.1 6.5 5.8 9.1 8.9 10.7 10.1 10.1 9.9 5.8 6.8 5.2 11.0 12.3 17.0 15.7 14.8 14.9 15.0 19.6 18.7 19.7 18.8 14.0 10.3 9.4 10.3 7.6 7.8 8.3 8.1
8.2 7.7 6.2 6.7 3.7 4.3 4.6 5.1 9.1 8.5 6.8 7.8 8.6 10.5 10.4 13.5 15.6 15.8 12.1 15.0 16.9 18.5 16.3 16.9 15.3 11.3 12.7 14.8 17.5 21.7 16.1 18.9 18.8 12.6 9.8 8.3 5.9 5.3
7.7 7.9 7.6 5.3 5.6 6.3 6.9 7.6 7.9 10.1 15.8 18.0 21.7 20.6 20.5 18.7 17.2 16.4 15.8 15.3 14.7 12.0 12.2 10.5 17.0 12.9 12.7 13.0 17.7 15.5 15.9 16.2 18.9 21.7 25.4 22.9 22.3 20.1
6.5 6.8 6.4 5.2 6.7 7.8 11.0 14.2 13.0 14.9 20.3 21.5 20.5 20.9 20.2 15.6 12.7 15.0 12.5 7.9 6.9 7.2 5.9 5.1 9.4 9.0 8.9 9.3 9.2 9.6 13.5 19.2 22.3 22.7 25.2 26.3 26.6 27.6
7.9 9.8 12.1 17.9 16.2 18.2 18.6 18.2 18.0 17.5 15.9 15.9 16.0 15.6 15.4 13.7 12.9 9.5 9.5 7.8 6.6 6.7 7.5 7.6 6.6 9.6 13.6 12.6 12.5 13.0 13.3 14.9 22.2 23.6 24.2 31.7 34.2 35.7
14.2 13.4 13.4 12.4 11.3 11.7 11.2 11.4 11.0 12.3 14.4 14.4 12.4 12.5 11.4 9.2 7.6 6.5 6.8 6.9 7.6 8.4 12.0 10.3 9.9 10.7 11.8 12.8 16.7 16.4 15.3 14.2 16.5 18.9 18.1 27.3 36.4 39.1
9.3 8.2 10.3 10.8 10.4 10.2 12.7 10.5 10.8 12.2 10.5 8.1 9.1 7.6 7.7 8.3 7.9 8.0 7.0 7.2 7.3 7.6 8.7 10.2 12.0 12.4 13.2 16.6 14.5 16.0 16.5 15.4 17.8 17.5 17.6 16.7 22.2 27.6
9.2 9.6 8.8 8.9 12.0 9.2 12.0 10.3 9.9 8.5 5.0 7.6 6.9 7.4 7.7 7.5 7.6 6.8 7.1 7.4 7.9 7.6 8.8 8.6 9.9 11.0 12.8 12.1 18.7 13.3 13.8 16.1 15.2 15.7 15.5 14.5 16.8 23.2
5.8 6.2 8.6 7.3 6.6 6.6 6.5 6.5 5.8 8.0 7.9 8.7 8.3 8.6 8.5 8.3 7.8 7.2 6.7 6.7 6.4 7.7 8.1 8.9 8.4 8.3 8.3 12.2 14.3 19.3 11.6 12.4 11.0 12.2 13.5 13.9 15.4 14.7
4.7 4.2 4.9 4.9 4.5 4.8 5.1 6.5 6.7 7.7 6.9 7.9 7.8 8.0 8.0 7.8 7.8 6.9 7.9 7.8 7.1 7.3 8.0 8.7 8.6 6.2 7.5 6.6 10.0 15.2 18.9 13.4 9.6 7.4 11.1 9.4 9.8 9.4
4.0 4.6 4.6 4.2 5.1 5.7 5.5 6.6 6.7 7.4 7.0 7.1 8.1 7.7 7.5 7.6 8.1 8.4 8.1 8.1 7.2 6.2 6.3 7.7 8.4 7.1 7.3 5.6 8.7 10.5 13.7 16.5 13.3 9.5 7.1 3.4 9.6 12.2
8.0 7.7 6.6 6.1 6.6 5.7 6.4 7.4 7.0 7.2 6.7 7.3 7.5 8.3 8.1 8.2 8.3 7.8 7.4 6.7 5.5 6.6 5.9 7.1 7.6 5.8 7.1 6.8 7.0 10.4 9.7 10.5 9.7 7.8 12.1 5.3 3.4 2.8

GFSNE_prec_snow_288.txt.gz
Snowfall_Accumulation
0.9 0.9 0.9 0.7 0.5 0.2 0.3 1.2 4.1 3.4 1.5 0.1 0.3 0.1 0.0 0.0 0.0 0.0 0.3 0.0 0.2 0.2 0.4 0.0 0.0 0.0 0.0 0.0 0.0 0.0 0.0 0.0 0.0 0.0 0.0 0.0 0.0 0.0
0.9 0.8 0.7 0.9 0.7 1.3 0.9 0.4 1.4 3.5 2.4 0.4 0.5 0.5 0.2 0.0 0.2 0.4 0.6 2.6 2.6 1.6 1.1 1.3 0.1 0.0 0.1 0.0 0.0 0.0 0.0 0.0 0.0 0.0 0.0 0.0 0.0 0.0
0.7 1.2 1.1 0.9 1.1 1.3 1.7 1.3 0.9 1.7 2.3 2.8 1.2 0.8 0.7 0.8 0.7 0.1 0.4 1.0 4.2 4.0 1.6 0.5 0.4 0.1 0.0 0.1 0.1 0.1 0.5 0.0 1.1 0.0 0.0 0.0 0.0 0.0
1.3 1.1 1.2 1.1 1.3 1.9 2.0 2.0 1.6 2.0 2.0 3.8 2.4 1.9 1.6 2.9 3.5 1.6 0.9 0.5 0.9 3.2 3.1 2.8 0.8 0.8 0.2 0.8 0.8 0.1 0.2 4.9 3.8 4.1 0.1 0.1 1.0 0.0
1.8 1.8 2.1 1.3 0.9 1.9 3.0 3.4 2.3 1.4 2.3 2.9 3.6 3.0 3.8 3.5 3.7 3.1 0.6 0.5 0.0 1.4 2.2 3.1 3.8 2.8 2.0 1.2 0.8 0.0 0.3 0.2 0.6 2.6 7.0 5.1 2.6 4.8
2.2 2.0 2.6 2.3 2.5 1.9 2.1 3.4 3.4 3.1 2.9 3.1 3.2 4.9 4.4 8.6 2.8 4.7 7.8 2.9 1.7 0.3 0.3 0.6 0.6 0.5 1.3 2.4 3.8 1.4 1.1 1.0 0.6 0.0 2.1 6.0 7.1 4.1
1.8 1.2 1.5 2.5 2.6 3.0 2.7 2.7 2.5 2.9 3.0 6.0 6.8 9.1 9.2 10.5 10.7 8.3 5.9 6.0 5.0 3.2 2.0 0.4 0.4 0.4 0.4 0.2 1.5 3.1 3.9 2.7 3.4 1.2 0.9 2.4 3.4 1.2
1.4 1.3 1.2 0.9 1.2 1.5 2.0 1.8 1.4 2.7 3.9 5.2 5.5 6.8 8.9 7.6 7.3 6.0 7.8 8.8 9.7 7.7 5.8 5.1 0.8 1.8 0.6 0.2 1.0 0.9 1.7 2.3 4.5 5.0 3.7 4.0 3.2 3.4
0.6 0.8 1.0 0.5 0.1 0.2 0.0 0.0 0.1 0.3 1.0 1.8 3.7 4.5 5.5 6.0 5.6 5.7 4.7 3.7 3.4 3.5 3.9 8.2 5.5 4.5 3.2 0.7 0.8 0.8 0.6 0.9 1.2 2.1 2.8 2.7 3.3 3.7
7.7 6.4 3.1 1.3 1.8 0.5 0.7 0.5 0.2 0.2 0.2 0.5 0.5 0.5 3.5 2.1 0.3 0.3 6.0 6.0 9.0 8.2 5.3 12.2 11.6 13.6 5.7 4.0 3.9 1.8 1.0 3.8 3.0 3.3 4.5 4.3 4.5 4.7
8.9 9.0 8.4 11.5 10.7 8.0 3.1 1.4 1.3 1.3 1.6 5.0 0.7 3.2 4.0 4.5 4.8 10.0 14.4 14.7 12.7 13.7 10.5 9.2 10.3 16.3 19.2 20.8 13.7 10.4 7.4 5.6 5.3 4.0 3.2 5.6 5.5 5.9
11.1 12.8 9.9 8.1 9.5 7.4 2.6 7.1 6.5 5.8 9.1 8.9 10.7 10.1 10.1 9.9 5.8 6.8 5.2 11.4 12.5 17.3 15.7 14.9 14.9 15.0 19.9 18.7 20.0 18.8 14.9 11.1 9.8 10.7 8.0 8.2 8.8 8.7
8.2 7.7 6.2 6.7 3.7 4.3 4.6 5.1 9.1 8.5 6.8 7.8 8.6 10.5 10.4 13.5 15.6 15.8 12.1 15.2 17.2 18.8 16.3 17.1 15.6 11.3 12.9 15.0 17.5 21.7 17.3 19.8 19.4 13.3 10.5 9.0 6.6 6.0
7.7 7.9 7.6 5.3 5.6 6.3 6.9 7.6 7.9 10.1 15.8 18.0 21.7 20.7 20.5 18.7 17.2 16.4 15.8 15.3 14.7 12.0 12.2 10.5 17.7 13.0 12.9 13.2 18.0 16.1 17.0 16.9 19.7 22.4 26.2 23.7 23.1 21.1
6.5 6.8 6.4 5.2 6.7 7.8 11.0 14.2 13.0 14.9 20.3 21.6 20.5 20.9 20.2 15.6 12.7 15.0 12.5 7.9 6.9 7.2 5.9 5.1 9.4 9.4 9.4 9.6 9.5 10.2 14.3 19.9 22.9 23.4 26.1 27.0 27.6 28.7
7.9 9.8 12.1 17.9 16.2 18.2 18.6 18.2 18.0 17.5 16.0 16.0 16.0 15.6 15.4 13.7 12.9 9.5 9.6 7.8 6.6 6.7 7.5 7.6 6.9 10.0 14.1 13.1 13.1 13.9 14.6 15.9 22.9 24.6 24.9 32.4 35.3 36.7
14.2 13.4 13.4 12.4 11.3 11.7 11.2 11.4 11.0 12.3 14.5 14.5 12.5 12.5 11.4 9.2 7.6 6.5 6.9 6.9 7.7 8.5 12.3 10.7 10.1 11.1 12.4 13.3 17.4 17.2 17.1 15.5 17.2 19.6 18.7 27.9 37.2 39.5
9.3 8.2 10.3 10.8 10.4 10.2 12.7 10.6 10.8 12.3 10.6 8.2 9.2 7.7 7.8 8.4 8.0 8.1 7.1 7.3 7.6 7.9 9.2 10.6 12.3 12.7 13.2 17.0 15.2 16.9 17.9 16.3 18.5 18.1 18.2 17.2 22.9 28.3
9.2 9.6 8.8 8.9 12.0 9.3 12.1 10.4 10.0 8.6 5.1 7.8 7.0 7.6 7.8 7.6 7.7 7.0 7.2 7.6 8.2 8.1 9.2 8.9 10.2 11.6 13.0 12.5 19.7 14.0 14.4 16.9 15.8 16.3 16.2 15.1 17.2 24.0
5.8 6.2 8.6 7.3 6.6 6.8 6.6 6.6 6.0 8.1 8.1 8.9 8.5 8.7 8.7 8.5 8.1 7.4 6.9 7.2 6.8 8.1 8.4 9.2 8.9 8.8 8.7 12.5 15.2 20.9 12.3 12.9 11.3 12.6 14.1 14.4 15.9 15.5
4.7 4.3 4.9 5.0 4.7 4.9 5.3 6.7 6.9 7.8 7.1 8.1 7.9 8.2 8.1 8.1 8.0 7.1 8.4 8.4 7.5 7.7 8.2 9.1 9.2 6.5 7.8 6.8 10.7 16.5 20.0 13.9 9.9 7.6 11.4 9.7 10.2 9.7
4.1 4.6 4.7 4.2 5.3 5.8 5.6 6.8 7.0 7.7 7.3 7.3 8.2 7.9 7.7 7.8 8.4 8.8 8.7 8.6 7.5 6.3 6.4 8.0 9.0 7.6 7.7 5.6 9.2 10.9 14.3 17.2 13.9 9.9 7.4 3.4 9.7 12.2
8.1 7.7 6.7 6.2 6.7 5.9 6.6 7.5 7.3 7.5 7.0 7.6 7.7 8.4 8.3 8.4 8.5 8.3 7.9 7.0 5.6 6.6 6.1 7.5 8.0 6.0 7.4 7.0 7.2 10.6 10.0 10.9 9.9 7.8 12.6 5.3 3.4 2.8